Torna al catalogo

DELTA 1 DEB

AttivoSSO
NORAD 42634·DEBRIS·🇺🇸 United States

Lanciato Jun 12, 1975 da Vandenberg Space Force Base

Loading…

Prossimi Passaggi (prossime 24 ore)

TLE

AggiornatoSource: Space-Track

Epoca: Sep 14, 2026, 08:12 UTC

1 42634U 75052LT  26257.34211885  .00000065  00000-0  21022-3 0  9993
2 42634  99.7391 118.3072 0062547  65.4466 295.3161 13.34427469624075

Traccia DELTA 1 DEB in tempo reale con AllMySat

Download on the App Store